Russell, KS

7:41 PM CDT on April 22, 2018 (GMT -0500)
Russell Municipal

Weather History for KRSL - October, 2012

Change the Weather History Date:

Friday, October 12, 2012

  Actual Average Record
Temperature  
Mean Temperature 48 °F -  
Max Temperature 52 °F 70 °F 93 °F (1975)
Min Temperature 46 °F 45 °F 24 °F (1977)
Degree Days  
Heating Degree Days 16    
Moisture  
Dew Point 40 °F    
Average Humidity 72    
Maximum Humidity 94    
Minimum Humidity 44    
Precipitation  
Precipitation 0.00 in - - ()
Sea Level Pressure  
Sea Level Pressure 30.12 in    
Wind  
Wind Speed 12 mph (ESE)    
Max Wind Speed 17 mph    
Max Gust Speed 26 mph    
Visibility 9 miles    
Events      
Averages and records for this station are not official NWS values.
T = Trace of Precipitation, MM = Missing Value Source: NWS Daily Summary

Daily Weather History Graph

Daily Weather History Graph

Search for Another Location

Airport or City:

Astronomy

Oct. 12, 2012 Rise Set
Actual Time 7:42 AM CDT 7:00 PM CDT
Civil Twilight 7:15 AM CDT 7:27 PM CDT
Nautical Twilight 6:44 AM CDT 7:57 PM CDT
Astronomical Twilight 6:13 AM CDT 8:28 PM CDT
Moon 4:28 AM CDT (10/12) 5:09 PM CDT (10/12)
Length of Visible Light 12h 11m
Length of Day
11h 18m
Waning Crescent, 10% of the Moon is Illuminated
Oct 12
Waning Crescent
Oct 15
New
Oct 21
First Quarter
Oct 29
Full
Nov 6
Last Quarter

Hourly Weather History & Observations

Time (CDT) Temp. Windchill Dew Point Humidity Pressure Visibility Wind Dir Wind Speed Gust Speed Precip Events Conditions
12:53 AM 48.0 °F - 30.9 °F 52% 30.19 in 10.0 mi NE 17.3 mph 26.5 mph N/A   Overcast
1:21 AM 48.2 °F - 30.2 °F 50% 30.21 in 10.0 mi NE 16.1 mph 24.2 mph N/A   Overcast
1:53 AM 48.0 °F - 30.0 °F 50% 30.21 in 10.0 mi NNE 17.3 mph 25.3 mph N/A   Overcast
3:53 AM 48.9 °F - 28.9 °F 46% 30.19 in 10.0 mi NE 11.5 mph - N/A   Overcast
4:53 AM 48.0 °F - 28.0 °F 46% 30.20 in 10.0 mi NE 13.8 mph 19.6 mph N/A   Overcast
5:53 AM 48.0 °F - 27.0 °F 44% 30.20 in 10.0 mi NE 12.7 mph - N/A   Overcast
6:53 AM 48.2 °F - 28.4 °F 46% 30.23 in 10.0 mi ENE 10.4 mph - N/A   Overcast
7:53 AM 46.9 °F - 28.9 °F 50% 30.23 in 10.0 mi ENE 11.5 mph - N/A   Overcast
8:53 AM 48.0 °F - 28.9 °F 48% 30.25 in 10.0 mi ENE 9.2 mph - N/A   Overcast
9:53 AM 46.9 °F - 30.9 °F 54% 30.25 in 10.0 mi ENE 11.5 mph - N/A   Overcast
10:53 AM 46.9 °F - 36.0 °F 66% 30.25 in 10.0 mi ESE 10.4 mph - N/A   Overcast
11:53 AM 46.0 °F 42.5 °F 37.9 °F 73% 30.25 in 10.0 mi ESE 6.9 mph - N/A   Overcast
12:53 PM 48.0 °F - 39.0 °F 71% 30.24 in 10.0 mi Calm Calm - N/A   Overcast
1:53 PM 48.9 °F - 39.9 °F 71% 30.20 in 10.0 mi Calm Calm - N/A   Overcast
2:53 PM 48.9 °F - 41.0 °F 74% 30.16 in 10.0 mi Calm Calm - N/A   Overcast
3:53 PM 50.0 °F - 41.0 °F 71% 30.14 in 10.0 mi Calm Calm - N/A   Overcast
4:53 PM 51.8 °F - 42.8 °F 71% 30.09 in 10.0 mi ESE 6.9 mph - N/A   Overcast
6:27 PM 51.8 °F - 44.6 °F 76% 30.07 in 10.0 mi SE 10.4 mph - N/A   Overcast
6:53 PM 50.0 °F - 44.1 °F 80% 30.09 in 10.0 mi SSE 6.9 mph - N/A   Overcast
7:48 PM 50.0 °F - 46.4 °F 87% 30.07 in 9.0 mi SSE 6.9 mph - N/A   Overcast
7:53 PM 50.0 °F - 46.9 °F 89% 30.09 in 8.0 mi South 8.1 mph - N/A   Overcast
8:10 PM 50.0 °F - 46.4 °F 87% 30.07 in 7.0 mi South 8.1 mph - N/A   Overcast
8:53 PM 50.0 °F - 46.9 °F 89% 30.04 in 7.0 mi SE 12.7 mph - N/A   Overcast
9:23 PM 50.0 °F - 48.2 °F 94% 30.00 in 4.0 mi SE 12.7 mph - N/A   Overcast
9:53 PM 50.0 °F - 48.2 °F 94% 30.00 in 8.0 mi SSE 13.8 mph - N/A   Overcast
10:07 PM 51.8 °F - 48.2 °F 88% 29.99 in 9.0 mi SSE 10.4 mph - N/A   Overcast
10:44 PM 51.8 °F - 48.2 °F 88% 29.99 in 7.0 mi SSE 11.5 mph - N/A   Overcast
10:53 PM 51.1 °F - 48.9 °F 92% 30.00 in 3.0 mi South 10.4 mph - N/A   Overcast
11:15 PM 51.8 °F - 48.2 °F 88% 29.96 in 5.0 mi SSE 15.0 mph - N/A   Overcast
11:34 PM 51.8 °F - 48.2 °F 88% 29.95 in 8.0 mi SSE 17.3 mph - N/A   Overcast
11:53 PM 51.8 °F - 50.0 °F 94% 29.93 in 7.0 mi SSE 6.9 mph - N/A   Overcast